Istanbul, Turkey

4:02 AM +03 on January 22, 2018 (GMT +0300)
Ataturk

Weather History for LTBA - December, 2012

Change the Weather History Date:

Saturday, December 8, 2012

  Actual Average Record
Temperature  
Mean Temperature 46 °F -  
Max Temperature 51 °F 48 °F 60 °F (2005)
Min Temperature 41 °F 40 °F 34 °F (2013)
Degree Days  
Heating Degree Days 19    
Moisture  
Dew Point 36 °F    
Average Humidity 64    
Maximum Humidity 87    
Minimum Humidity 46    
Precipitation  
Precipitation 0.00 in - - ()
Sea Level Pressure  
Sea Level Pressure 30.03 in    
Wind  
Wind Speed 6 mph ()    
Max Wind Speed 16 mph    
Max Gust Speed -    
Visibility 6.2 miles    
Events Rain    
Averages and records for this station are not official NWS values.
T = Trace of Precipitation, MM = Missing Value Source: Averaged Metar Reports

Daily Weather History Graph

Daily Weather History Graph

Search for Another Location

Airport or City:

Trip Planner

Search our weather history database for the weather conditions in past years. The results will help you decide how hot, cold, wet, or windy it might be!

Date:

Astronomy

Dec. 08, 2012 Rise Set
Actual Time 7:17 AM EET 4:36 PM EET
Civil Twilight 6:46 AM EET 5:07 PM EET
Nautical Twilight 6:11 AM EET 5:41 PM EET
Astronomical Twilight 5:38 AM EET 6:15 PM EET
Moon 1:17 AM EET (12/8) 12:57 PM EET (12/8)
Length of Visible Light 10h 21m
Length of Day
9h 19m
Waning Crescent, 31% of the Moon is Illuminated
Dec 8
Waning Crescent
Dec 13
New
Dec 20
First Quarter
Dec 28
Full
Jan 5
Last Quarter

Hourly Weather History & Observations

Time (EET) Temp. Windchill Dew Point Humidity Pressure Visibility Wind Dir Wind Speed Gust Speed Precip Events Conditions
12:20 AM 41.0 °F 35.2 °F 37.4 °F 87% 30.04 in 6.2 mi North 9.2 mph - N/A   Mostly Cloudy
12:50 AM 42.8 °F 38.6 °F 37.4 °F 81% 30.06 in 6.2 mi North 6.9 mph - N/A   Mostly Cloudy
1:20 AM 42.8 °F 38.0 °F 37.4 °F 81% 30.06 in 6.2 mi North 8.1 mph - N/A   Mostly Cloudy
1:50 AM 42.8 °F 39.3 °F 37.4 °F 81% 30.06 in 6.2 mi NNE 5.8 mph - N/A   Mostly Cloudy
2:00 AM 43 °F - 37 °F 71% 30.08 in 6 mi NNE 5.8 mph - -   Partly Cloudy
2:20 AM 44.6 °F 41.4 °F 37.4 °F 76% 30.06 in 6.2 mi Variable 5.8 mph - N/A   Mostly Cloudy
2:50 AM 42.8 °F 41.1 °F 37.4 °F 81% 30.06 in 6.2 mi NE 3.5 mph - N/A   Mostly Cloudy
3:20 AM 42.8 °F - 37.4 °F 81% 30.06 in 6.2 mi Variable 2.3 mph - N/A   Mostly Cloudy
3:50 AM 42.8 °F - 35.6 °F 76% 30.06 in 6.2 mi Variable 2.3 mph - N/A   Mostly Cloudy
4:20 AM 42.8 °F 41.1 °F 37.4 °F 81% 30.06 in 6.2 mi East 3.5 mph - N/A Rain Light Rain Showers
4:50 AM 42.8 °F - 39.2 °F 87% 30.06 in 6.2 mi Variable 2.3 mph - N/A   Mostly Cloudy
5:20 AM 42.8 °F - 39.2 °F 87% 30.06 in 6.2 mi Variable 2.3 mph - N/A   Mostly Cloudy
5:50 AM 42.8 °F - 39.2 °F 87% 30.06 in 6.2 mi Variable 2.3 mph - N/A   Mostly Cloudy
6:20 AM 42.8 °F 39.3 °F 35.6 °F 76% 30.06 in 6.2 mi NE 5.8 mph - N/A   Mostly Cloudy
6:50 AM 44.6 °F 41.4 °F 35.6 °F 71% 30.06 in 6.2 mi NE 5.8 mph - N/A   Mostly Cloudy
7:20 AM 44.6 °F 42.2 °F 37.4 °F 76% 30.06 in 6.2 mi South 4.6 mph - N/A   Mostly Cloudy
7:50 AM 44.6 °F - 37.4 °F 76% 30.06 in 6.2 mi Variable 1.2 mph - N/A   Mostly Cloudy
8:00 AM 45 °F - 37 °F 66% 30.10 in 6 mi East 1.2 mph - - Rain Light Rain Showers
8:20 AM 44.6 °F - 39.2 °F 81% 30.09 in 6.2 mi Variable 1.2 mph - N/A   Mostly Cloudy
8:50 AM 50.0 °F - 39.2 °F 66% 30.09 in 6.2 mi Variable 4.6 mph - N/A   Mostly Cloudy
9:20 AM 50.0 °F - 37.4 °F 62% 30.09 in 6.2 mi SSE 5.8 mph - N/A   Mostly Cloudy
9:50 AM 48.2 °F - 33.8 °F 58% 30.09 in 6.2 mi South 6.9 mph - N/A   Mostly Cloudy
10:20 AM 48.2 °F - 33.8 °F 58% 30.09 in 6.2 mi South 4.6 mph - N/A   Scattered Clouds
10:50 AM 48.2 °F - 37.4 °F 66% 30.09 in 6.2 mi SE 8.1 mph - N/A   Scattered Clouds
11:20 AM 48.2 °F - 37.4 °F 66% 30.09 in 6.2 mi ESE 8.1 mph - N/A   Scattered Clouds
11:50 AM 50.0 °F - 37.4 °F 62% 30.06 in 6.2 mi ESE 6.9 mph - N/A   Scattered Clouds
12:20 PM 50.0 °F - 37.4 °F 62% 30.06 in 6.2 mi ESE 6.9 mph - N/A   Scattered Clouds
12:50 PM 50.0 °F - 37.4 °F 62% 30.06 in 6.2 mi ESE 8.1 mph - N/A   Scattered Clouds
1:20 PM 50.0 °F - 35.6 °F 58% 30.04 in 6.2 mi ESE 8.1 mph - N/A   Scattered Clouds
1:50 PM 50.0 °F - 35.6 °F 58% 30.04 in 6.2 mi ESE 8.1 mph - N/A   Scattered Clouds
2:00 PM 50 °F - 36 °F 48% 30.05 in 6 mi ESE 8.1 mph - -   Partly Cloudy
2:20 PM 50.0 °F - 37.4 °F 62% 30.01 in 6.2 mi ESE 9.2 mph - N/A   Scattered Clouds
2:50 PM 50.0 °F - 33.8 °F 54% 30.01 in 6.2 mi SE 8.1 mph - N/A   Scattered Clouds
3:20 PM 50.0 °F - 32.0 °F 50% 30.01 in 6.2 mi ESE 6.9 mph - N/A   Partly Cloudy
3:50 PM 50.0 °F - 32.0 °F 50% 30.01 in 6.2 mi ESE 5.8 mph - N/A   Scattered Clouds
4:20 PM 50.0 °F - 33.8 °F 54% 30.01 in 6.2 mi ESE 6.9 mph - N/A   Scattered Clouds
4:50 PM 50.0 °F - 33.8 °F 54% 30.01 in 6.2 mi ESE 6.9 mph - N/A   Scattered Clouds
5:20 PM 50.0 °F - 32.0 °F 50% 30.01 in 6.2 mi East 5.8 mph - N/A   Scattered Clouds
5:50 PM 50.0 °F - 33.8 °F 54% 30.01 in 6.2 mi East 6.9 mph - N/A   Scattered Clouds
6:20 PM 50.0 °F - 35.6 °F 58% 30.01 in 6.2 mi East 8.1 mph - N/A   Scattered Clouds
6:50 PM 50.0 °F - 35.6 °F 58% 29.98 in - East 6.9 mph - N/A   Clear
7:20 PM 50.0 °F - 35.6 °F 58% 29.98 in - East 6.9 mph - N/A   Clear
7:50 PM 50.0 °F - 35.6 °F 58% 29.98 in - ENE 6.9 mph - N/A   Clear
8:00 PM 50 °F - 35 °F 46% 30.00 in 6 mi ENE 6.9 mph - -  
8:20 PM 51.8 °F - 35.6 °F 54% 29.98 in - East 6.9 mph - N/A   Clear
8:50 PM 51.8 °F - 37.4 °F 58% 29.98 in - East 8.1 mph - N/A   Clear
9:20 PM 51.8 °F - 37.4 °F 58% 29.98 in - ESE 10.4 mph - N/A   Clear
9:50 PM 51.8 °F - 33.8 °F 50% 29.95 in - ESE 11.5 mph - N/A   Clear
10:20 PM 51.8 °F - 35.6 °F 54% 29.95 in - ESE 12.7 mph - N/A   Clear
10:50 PM 51.8 °F - 32.0 °F 47% 29.95 in - SE 16.1 mph - N/A   Clear
11:20 PM 51.8 °F - 33.8 °F 50% 29.95 in - SE 16.1 mph - N/A   Clear
11:50 PM 51.8 °F - 32.0 °F 47% 29.95 in - SE 16.1 mph - N/A   Clear